Change the Weather History Date:

Wednesday, January 16, 2013

  Actual Average Record
Temperature  
Mean Temperature 24 °F -  
Max Temperature 37 °F 24 °F 37 °F (2013)
Min Temperature 10 °F 3 °F 0 °F (2011)
Degree Days  
Heating Degree Days 42    
Moisture  
Dew Point 26 °F    
Average Humidity 98    
Maximum Humidity 100    
Minimum Humidity 85    
Precipitation  
Precipitation 0.05 in - - ()
Sea Level Pressure  
Sea Level Pressure 29.91 in    
Wind  
Wind Speed 15 mph (NW)    
Max Wind Speed 25 mph    
Max Gust Speed 32 mph    
Visibility 10 miles    
Events Snow    
Averages and records for this station are not official NWS values.
T = Trace of Precipitation, MM = Missing Value Source: NWS Daily Summary

Daily Weather History Graph

Daily Weather History Graph

Search for Another Location

Airport or City:

Trip Planner

Search our weather history database for the weather conditions in past years. The results will help you decide how hot, cold, wet, or windy it might be!

Date:

Astronomy

Jan. 16, 2013 Rise Set
Actual Time 7:59 AM CST 5:17 PM CST
Civil Twilight 7:27 AM CST 5:49 PM CST
Nautical Twilight 6:51 AM CST 6:25 PM CST
Astronomical Twilight 6:17 AM CST 6:59 PM CST
Moon 10:22 AM CST (1/16) 11:25 PM CST (1/16)
Length of Visible Light 10h 22m
Length of Day
9h 18m
Waxing Crescent, 28% of the Moon is Illuminated
Jan 16
Waxing Crescent
Jan 18
First Quarter
Jan 26
Full
Feb 3
Last Quarter
Feb 10
New

Hourly Weather History & Observations

Time (CST) Temp. Windchill Dew Point Humidity Pressure Visibility Wind Dir Wind Speed Gust Speed Precip Events Conditions
12:00 AM 24.8 °F 10.7 °F 24.8 °F 100% 29.76 in 5.0 mi WSW 19.6 mph 26.5 mph N/A Snow Light Snow
12:20 AM 24.8 °F 11.1 °F 24.8 °F 100% 29.76 in 10.0 mi SW 18.4 mph 24.2 mph N/A Snow Light Snow
12:40 AM 24.8 °F 11.5 °F 24.8 °F 100% 29.75 in 8.0 mi WSW 17.3 mph 24.2 mph N/A Snow Light Snow
1:00 AM 24.8 °F 11.9 °F 24.8 °F 100% 29.75 in 3.0 mi WSW 16.1 mph 20.7 mph 0.02 in Snow Light Snow
1:20 AM 24.8 °F 11.5 °F 24.8 °F 100% 29.74 in 7.0 mi WSW 17.3 mph 25.3 mph N/A Snow Light Snow
1:40 AM 26.6 °F 14.7 °F 26.6 °F 100% 29.74 in 9.0 mi WSW 15.0 mph - 0.01 in Snow Light Snow
2:00 AM 26.6 °F 14.3 °F 26.6 °F 100% 29.73 in 7.0 mi WSW 16.1 mph 21.9 mph 0.01 in Snow Light Snow
2:20 AM 26.6 °F 14.3 °F 26.6 °F 100% 29.73 in 7.0 mi WSW 16.1 mph 23.0 mph N/A Snow Light Snow
2:40 AM 26.6 °F 15.7 °F 26.6 °F 100% 29.74 in 10.0 mi WSW 12.7 mph 21.9 mph N/A Snow Light Snow
3:00 AM 28.4 °F 17.0 °F 28.4 °F 100% 29.74 in 10.0 mi WSW 15.0 mph 19.6 mph N/A Snow Light Snow
3:20 AM 28.4 °F 17.0 °F 28.4 °F 100% 29.74 in 5.0 mi WSW 15.0 mph - 0.01 in Snow Light Snow
3:40 AM 28.4 °F 18.5 °F 28.4 °F 100% 29.73 in 10.0 mi WSW 11.5 mph - 0.01 in   Overcast
4:00 AM 28.4 °F 18.5 °F 28.4 °F 100% 29.74 in 10.0 mi WSW 11.5 mph - 0.01 in   Overcast
4:20 AM 30.2 °F 21.9 °F 30.2 °F 100% 29.74 in 10.0 mi West 9.2 mph - N/A Snow Light Snow
4:40 AM 32.0 °F 24.2 °F 32.0 °F 100% 29.73 in 10.0 mi West 9.2 mph - N/A   Overcast
5:00 AM 32.0 °F 24.2 °F 32.0 °F 100% 29.73 in 10.0 mi West 9.2 mph - N/A   Scattered Clouds
5:20 AM 32.0 °F 23.6 °F 32.0 °F 100% 29.73 in 10.0 mi West 10.4 mph - N/A   Clear
5:40 AM 30.2 °F 21.3 °F 30.2 °F 100% 29.74 in 10.0 mi West 10.4 mph - N/A   Clear
6:00 AM 30.2 °F 20.8 °F 30.2 °F 100% 29.75 in 10.0 mi WNW 11.5 mph - N/A   Clear
6:20 AM 32.0 °F 23.0 °F 32.0 °F 100% 29.76 in 10.0 mi WNW 11.5 mph - N/A   Partly Cloudy
6:40 AM 32.0 °F 23.6 °F 32.0 °F 100% 29.76 in 10.0 mi West 10.4 mph - N/A   Mostly Cloudy
7:00 AM 32.0 °F 23.0 °F 32.0 °F 100% 29.76 in 10.0 mi West 11.5 mph - N/A   Overcast
7:20 AM 32.0 °F 23.0 °F 32.0 °F 100% 29.77 in 10.0 mi West 11.5 mph - N/A   Overcast
7:40 AM 32.0 °F 23.0 °F 32.0 °F 100% 29.78 in 10.0 mi West 11.5 mph - N/A   Mostly Cloudy
8:00 AM 30.2 °F 20.8 °F 30.2 °F 100% 29.78 in 10.0 mi West 11.5 mph - N/A   Partly Cloudy
8:20 AM 30.2 °F 20.8 °F 30.2 °F 100% 29.79 in 10.0 mi West 11.5 mph - N/A   Clear
8:40 AM 32.0 °F 22.1 °F 32.0 °F 100% 29.80 in 10.0 mi West 13.8 mph - N/A   Partly Cloudy
9:00 AM 32.0 °F 22.1 °F 32.0 °F 100% 29.80 in 10.0 mi West 13.8 mph 19.6 mph N/A   Scattered Clouds
9:20 AM 32.0 °F 22.1 °F 32.0 °F 100% 29.81 in 10.0 mi West 13.8 mph 21.9 mph N/A   Mostly Cloudy
9:40 AM 32.0 °F 21.2 °F 32.0 °F 100% 29.82 in 10.0 mi West 16.1 mph 21.9 mph N/A   Overcast
10:00 AM 33.8 °F 24.3 °F 33.8 °F 100% 29.82 in 10.0 mi West 13.8 mph 20.7 mph N/A   Overcast
10:20 AM 33.8 °F 24.8 °F 33.8 °F 100% 29.83 in 10.0 mi West 12.7 mph - N/A   Overcast
10:40 AM 35.6 °F 27.5 °F 35.6 °F 100% 29.82 in 10.0 mi West 11.5 mph - N/A   Mostly Cloudy
11:00 AM 35.6 °F 27.5 °F 35.6 °F 100% 29.82 in 10.0 mi West 11.5 mph 17.3 mph N/A   Partly Cloudy
11:20 AM 35.6 °F 26.2 °F 35.6 °F 100% 29.81 in 10.0 mi West 15.0 mph 18.4 mph N/A   Clear
11:40 AM 37.4 °F 28.5 °F 37.4 °F 100% 29.81 in 10.0 mi West 15.0 mph 20.7 mph N/A   Clear
12:00 PM 37.4 °F 27.5 °F 37.4 °F 100% 29.82 in 10.0 mi WNW 18.4 mph 26.5 mph N/A   Clear
12:20 PM 37.4 °F 26.1 °F 37.4 °F 100% 29.81 in 10.0 mi WNW 24.2 mph 28.8 mph N/A   Clear
12:40 PM 37.4 °F 26.9 °F 37.4 °F 100% 29.83 in 10.0 mi WNW 20.7 mph 31.1 mph N/A   Clear
1:00 PM 37.4 °F 26.4 °F 37.4 °F 100% 29.83 in 10.0 mi WNW 23.0 mph 26.5 mph N/A   Clear
1:20 PM 37.4 °F 26.6 °F 37.4 °F 100% 29.84 in 10.0 mi NW 21.9 mph 27.6 mph N/A   Clear
1:40 PM 37.4 °F 26.6 °F 37.4 °F 100% 29.86 in 10.0 mi NW 21.9 mph 31.1 mph N/A   Clear
2:00 PM 37.4 °F 26.4 °F 37.4 °F 100% 29.86 in 10.0 mi NW 23.0 mph 32.2 mph N/A   Clear
2:20 PM 37.4 °F 25.9 °F 37.4 °F 100% 29.87 in 10.0 mi NNW 25.3 mph 32.2 mph N/A   Partly Cloudy
2:40 PM 35.6 °F 23.4 °F 35.6 °F 100% 29.89 in 10.0 mi NNW 25.3 mph 31.1 mph N/A   Overcast
3:00 PM 35.6 °F 24.2 °F 35.6 °F 100% 29.92 in 10.0 mi NNW 21.9 mph 27.6 mph N/A   Overcast
3:20 PM 35.6 °F 24.8 °F 35.6 °F 100% 29.94 in 10.0 mi NNW 19.6 mph 24.2 mph N/A   Overcast
3:40 PM 28.4 °F 14.4 °F 28.4 °F 100% 29.97 in 10.0 mi NNE 23.0 mph - N/A   Overcast
4:00 PM 26.6 °F 13.4 °F 26.6 °F 100% 30.00 in 10.0 mi NNE 18.4 mph 24.2 mph N/A   Overcast
4:20 PM 24.8 °F 12.9 °F 24.8 °F 100% 30.01 in 10.0 mi NNE 13.8 mph - N/A   Overcast
4:40 PM 24.8 °F 11.5 °F 24.8 °F 100% 30.02 in 10.0 mi NNE 17.3 mph 20.7 mph N/A   Overcast
5:00 PM 23.0 °F 9.2 °F 23.0 °F 100% 30.03 in 10.0 mi NNE 17.3 mph - N/A   Overcast
5:40 PM 19.4 °F 5.0 °F 19.4 °F 100% 30.07 in 10.0 mi NNE 16.1 mph - N/A   Partly Cloudy
6:00 PM 19.4 °F 7.9 °F 19.4 °F 100% 30.10 in 10.0 mi NNE 10.4 mph - N/A   Clear
6:20 PM 17.6 °F 6.4 °F 17.6 °F 100% 30.12 in 10.0 mi NNE 9.2 mph - N/A   Clear
6:40 PM 17.6 °F 5.7 °F 17.6 °F 100% 30.13 in 10.0 mi NE 10.4 mph - N/A   Clear
7:00 PM 17.6 °F 5.7 °F 17.6 °F 100% 30.14 in 10.0 mi NNE 10.4 mph - N/A   Clear
7:20 PM 15.8 °F 3.4 °F 15.8 °F 100% 30.15 in 10.0 mi NNE 10.4 mph - N/A   Clear
7:40 PM 15.8 °F 5.1 °F 15.8 °F 100% 30.17 in 10.0 mi NNE 8.1 mph - N/A   Clear
8:00 PM 14.0 °F -0.2 °F 14.0 °F 100% 30.19 in 10.0 mi North 12.7 mph - N/A   Clear
8:20 PM 14.0 °F -0.8 °F 10.4 °F 86% 30.19 in 10.0 mi North 13.8 mph - N/A   Clear
8:40 PM 12.2 °F -1.0 °F 10.4 °F 92% 30.20 in 10.0 mi North 10.4 mph - N/A   Clear
9:00 PM 12.2 °F 0.7 °F 8.6 °F 85% 30.20 in 10.0 mi NNE 8.1 mph - N/A   Clear
9:20 PM 12.2 °F 1.7 °F 8.6 °F 85% 30.20 in 10.0 mi NNE 6.9 mph - N/A   Clear
9:40 PM 10.4 °F -1.5 °F 10.4 °F 100% 30.20 in 10.0 mi North 8.1 mph - N/A   Clear
10:00 PM 10.4 °F 0.8 °F 8.6 °F 92% 30.20 in 10.0 mi NNE 5.8 mph - N/A   Clear
10:20 PM 10.4 °F 4.0 °F 8.6 °F 92% 30.20 in 10.0 mi NE 3.5 mph - N/A   Clear
10:40 PM 10.4 °F 2.2 °F 8.6 °F 92% 30.20 in 10.0 mi East 4.6 mph - N/A   Scattered Clouds
11:00 PM 10.4 °F 4.0 °F 8.6 °F 92% 30.22 in 10.0 mi NNE 3.5 mph - N/A   Overcast
11:20 PM 12.2 °F 4.3 °F 10.4 °F 92% 30.22 in 10.0 mi NNE 4.6 mph - N/A   Overcast
11:40 PM 12.2 °F - 8.6 °F 85% 30.23 in 10.0 mi Calm Calm - N/A   Overcast